Location: Anciles
(42.5833°N, 0.5167°E)
Time: 22:32:35
(UTC+00:00)

Cosmos 2026 Rocket - Pass Details

Date: 10 December 2019
Orbit: 940 x 1000 km, 82.9° (Epoch: 24 January)

Event Time Altitude Azimuth Distance (km) Brightness Sun altitude
Rises 17:52:00 0° 177° (S) 3,598 7.2 -15.5°
Reaches altitude 10° 17:54:30 10° 175° (S) 2,653 6.4 -16.0°
Maximum altitude 18:00:29 67° 94° (E) 1,016 3.8 -17.0°
Drops below altitude 10° 18:06:30 10° 13° (NNE) 2,667 6.0 -18.1°
Sets 18:09:00 0° 11° (N) 3,619 6.7 -18.5°
